Location: Bethera
(33.2010°N, 79.7880°W)
Time: 15:21:54
(UTC-05:00)

Amateur Radio Satellites - All Passes

Search period start: 22 January 2017 14:51
Search period end: 23 January 2017 14:51
Location: Bethera, 33.2010°N, 79.7880°W

Satellite Date Start Highest point End Downlink Frequencies (MHz)
Time Altitude Azimuth
AIST 1 22 Jan 14:57:06 14:59:39 15° 285° (WNW) 15:02:13
SRMSAT 22 Jan 14:58:07 15:01:26 15° 166° (SSE) 15:04:43 437.500
BEESAT 3 22 Jan 15:09:52 15:13:26 37° 114° (ESE) 15:17:05 437.485
Cosmos 2504 22 Jan 15:10:15 15:19:00 78° 277° (W) 15:27:15 435.465 / 435.565
JUGNU 22 Jan 15:11:51 15:16:14 22° 182° (S) 15:20:38 437.505
YUBILEINY 22 Jan 15:23:22 15:31:19 37° 284° (WNW) 15:39:23 435.215
Cosmos 2491 22 Jan 15:26:00 15:30:55 16° 280° (W) 15:35:51 435.465 / 435.565
ITUPSAT 1 22 Jan 15:33:20 15:37:57 48° 287° (WNW) 15:42:34 437.325
O/OREOS (USA 219) 22 Jan 15:35:10 15:39:05 29° 65° (ENE) 15:43:01 437.305
DANDE 22 Jan 15:39:06 15:47:09 64° 266° (W) 15:55:13 436.750
MOZHAYETS 4 22 Jan 15:41:16 15:45:52 61° 100° (E) 15:50:27
ITAMSAT 1 22 Jan 15:41:27 15:45:45 26° 263° (W) 15:50:04 435.822/435.867
BEESAT 2 22 Jan 15:59:24 16:03:15 61° 115° (ESE) 16:07:10 435.950
M-CUBED/EXP-1 PRIME 22 Jan 15:59:52 16:02:23 21° 101° (ESE) 16:04:55 437.505
KKS-1 22 Jan 16:04:35 16:08:28 30° 98° (E) 16:12:20 437.445
BEESAT 22 Jan 16:07:15 16:10:49 21° 292° (WNW) 16:14:23 436.000
HORYU 2 22 Jan 16:09:05 16:11:54 17° 68° (ENE) 16:14:44 437.375
SWISSCUBE 22 Jan 16:09:27 16:12:40 18° 293° (WNW) 16:15:53 437.505
CUSAT 1 22 Jan 16:13:47 16:15:57 11° 282° (WNW) 16:18:04 437.405
GOMX 1 22 Jan 16:14:20 16:18:13 21° 69° (ENE) 16:22:00 467.674
BRITE-PL 22 Jan 16:20:20 16:25:56 61° 75° (ENE) 16:31:29 437.365/2234.400
SO-50 22 Jan 16:30:29 16:34:54 54° 59° (ENE) 16:39:15 436.795
CUBESAT XI-V 22 Jan 16:33:38 16:37:46 31° 97° (E) 16:41:51 437.345
AUBIESAT-1 22 Jan 16:33:53 16:37:07 52° 106° (ESE) 16:40:20 437.475
DOVE 4 22 Jan 16:42:56 16:45:25 14° 68° (ENE) 16:47:51 437.250
AO-7 22 Jan 16:42:59 16:49:01 22° 265° (W) 16:55:07 29.400- 29.500
SRMSAT 22 Jan 16:45:29 16:49:57 22° 176° (S) 16:54:25 437.500
BEESAT 3 22 Jan 16:48:58 16:51:12 15° 309° (NW) 16:53:26 437.485
STARS 22 Jan 16:50:56 16:55:07 44° 100° (E) 16:59:17 437.465
JUGNU 22 Jan 17:01:02 17:04:36 16° 192° (SSW) 17:08:11 437.505
CUTE-I 22 Jan 17:08:26 17:12:57 29° 69° (ENE) 17:17:27 437.470
Cosmos 2504 22 Jan 17:10:32 17:13:26 12° 293° (WNW) 17:16:17 435.465 / 435.565
O/OREOS (USA 219) 22 Jan 17:14:57 17:18:16 20° 259° (W) 17:21:35 437.305
LilacSat-2 22 Jan 17:14:59 17:18:13 28° 73° (ENE) 17:21:29 437.200
MOZHAYETS 4 22 Jan 17:21:10 17:22:27 11° 295° (WNW) 17:23:43
M-CUBED/EXP-1 PRIME 22 Jan 17:34:55 17:36:43 14° 295° (WNW) 17:38:29 437.505
BEESAT 2 22 Jan 17:40:41 17:41:24 10° 312° (NW) 17:42:08 435.950
KKS-1 22 Jan 17:41:37 17:44:47 20° 291° (WNW) 17:47:58 437.445
HORYU 2 22 Jan 17:44:08 17:48:08 35° 261° (W) 17:52:10 437.375
HO-68 22 Jan 17:44:35 17:49:03 18° 60° (ENE) 17:53:32 435.675
GOMX 1 22 Jan 17:50:52 17:55:58 41° 261° (W) 18:00:54 467.674
Cubesat XI-IV 22 Jan 17:51:29 17:56:47 78° 75° (ENE) 18:02:06 437.490
NOAA 15 22 Jan 17:51:44 17:57:01 84° 77° (ENE) 18:02:21 137.62
CINEMA 3 22 Jan 17:53:56 17:56:33 16° 69° (ENE) 17:59:07 145.822/145.860
BRITE-PL 22 Jan 18:01:28 18:04:39 15° 268° (W) 18:07:50 437.365/2234.400
CUBESAT XI-V 22 Jan 18:11:25 18:14:54 21° 291° (WNW) 18:18:22 437.345
SO-50 22 Jan 18:13:19 18:14:49 11° 253° (WSW) 18:16:18 436.795
NOAA 18 22 Jan 18:15:18 18:20:47 72° 74° (ENE) 18:26:15 137.9125
GONETS M04 22 Jan 18:17:39 18:22:47 17° 80° (E) 18:27:55
DOVE 4 22 Jan 18:17:47 18:22:42 53° 260° (W) 18:27:22 437.250
AIST 2 22 Jan 18:18:49 18:22:30 33° 112° (ESE) 18:26:13 435.215
STARS 22 Jan 18:28:58 18:31:02 13° 293° (WNW) 18:33:06 437.465
CUTE 1.7 + AOD 2 22 Jan 18:31:13 18:34:29 22° 71° (ENE) 18:37:47 437.475
SRMSAT 22 Jan 18:34:11 18:38:31 21° 186° (S) 18:42:50 437.500
CUTE-I 22 Jan 18:48:22 18:52:52 28° 263° (W) 18:57:23 437.470
LilacSat-2 22 Jan 18:50:28 18:52:31 14° 266° (W) 18:54:34 437.200
CANX-2 22 Jan 18:59:57 19:04:06 59° 76° (ENE) 19:08:19 2200.000
SEEDS 22 Jan 19:06:04 19:09:57 37° 74° (ENE) 19:13:52 437.485
COMPASS 1 22 Jan 19:07:13 19:10:36 24° 71° (ENE) 19:14:00 437.405
AAUSAT CUBESAT 2 22 Jan 19:16:01 19:19:19 23° 71° (ENE) 19:22:37 437.432
Cosmos 2499 22 Jan 19:16:33 19:24:54 63° 92° (E) 19:32:40 435.465 / 435.565
STRAND 1 22 Jan 19:17:09 19:22:06 46° 100° (E) 19:27:01 437.568
HO-68 22 Jan 19:28:46 19:35:57 76° 256° (WSW) 19:43:11 435.675
CINEMA 3 22 Jan 19:29:19 19:33:24 35° 261° (W) 19:37:21 145.822/145.860
Oscar 11 22 Jan 19:39:52 19:42:36 17° 69° (ENE) 19:45:20 145.826/435.025
AIST 2 22 Jan 19:58:08 20:01:01 18° 308° (NW) 20:03:56 435.215
ISS 22 Jan 19:58:20 20:00:31 17° 128° (SE) 20:02:41 145.825
NOAA 18 22 Jan 20:00:14 20:01:51 11° 268° (W) 20:03:29 137.9125
CUTE 1.7 + AOD 2 22 Jan 20:06:43 20:10:10 24° 264° (W) 20:13:38 437.475
CUBEBUG 2 22 Jan 20:06:52 20:10:59 63° 259° (W) 20:15:06 437.445
GONETS M04 22 Jan 20:09:47 20:18:28 78° 277° (W) 20:27:16
DELFI C3 22 Jan 20:13:02 20:14:13 11° 67° (ENE) 20:15:26 145.870
FUNcube-1 22 Jan 20:18:15 20:22:14 51° 75° (ENE) 20:26:16 145.935
SRMSAT 22 Jan 20:24:35 20:27:01 13° 196° (SSW) 20:29:27 437.500
UWE-3 22 Jan 20:29:56 20:33:59 54° 260° (W) 20:38:03 435.000/436.395/437.385
HUMSAT D 22 Jan 20:34:20 20:35:19 11° 66° (ENE) 20:36:19 437.325/437.525
PRISM 22 Jan 20:41:19 20:43:28 14° 94° (E) 20:45:35 437.425
ZACube-1 22 Jan 20:42:45 20:46:51 68° 260° (W) 20:50:59 437.345
COMPASS 1 22 Jan 20:42:51 20:46:02 21° 265° (W) 20:49:15 437.405
SEEDS 22 Jan 20:43:34 20:45:44 14° 267° (W) 20:47:55 437.485
AAUSAT CUBESAT 2 22 Jan 20:51:24 20:54:39 22° 265° (W) 20:57:56 437.432
RS-15 22 Jan 20:55:28 20:59:11 12° 96° (E) 21:02:56 29.354- 29.394
STRAND 1 22 Jan 20:57:30 21:00:51 18° 294° (WNW) 21:04:12 437.568
Cosmos 2499 22 Jan 21:12:10 21:18:21 22° 287° (WNW) 21:24:16 435.465 / 435.565
Oscar 11 22 Jan 21:14:31 21:18:25 33° 262° (W) 21:22:21 145.826/435.025
ISS 22 Jan 21:33:48 21:36:47 32° 321° (NW) 21:39:46 145.825
JAS-2 22 Jan 21:41:12 21:44:37 13° 91° (E) 21:48:05 435.910
DELFI C3 22 Jan 21:44:45 21:48:34 44° 261° (W) 21:52:25 145.870
UNISAT 6 22 Jan 21:50:27 21:54:26 30° 97° (E) 21:58:28 437.425
BY70-1 22 Jan 21:50:52 21:52:40 15° 69° (ENE) 21:54:31 436.1900
TIGRISAT 22 Jan 22:02:46 22:06:59 39° 99° (E) 22:11:16 435.000
HUMSAT D 22 Jan 22:06:29 22:10:26 48° 261° (W) 22:14:26 437.325/437.525
ESTCUBE 1 22 Jan 22:06:33 22:09:36 18° 68° (ENE) 22:12:38 437.505/2401.250
GONETS M04 22 Jan 22:13:49 22:16:42 12° 296° (WNW) 22:19:35
AO-85 22 Jan 22:13:53 22:17:27 33° 57° (ENE) 22:21:02 145.980
PRISM 22 Jan 22:15:06 22:18:49 34° 287° (WNW) 22:22:31 437.425
ANTELSAT 22 Jan 22:18:29 22:22:58 66° 101° (ESE) 22:27:31 437.575/2403.000
CUBEBUG 1 22 Jan 22:45:12 22:48:55 27° 71° (ENE) 22:52:37 437.445
POLYITAN 1 22 Jan 22:52:47 22:54:11 11° 93° (E) 22:55:34 437.675
QB50P2 22 Jan 22:53:38 22:55:34 13° 93° (E) 22:57:30 145.880/145.840
50 SAT 22 Jan 22:55:06 22:56:23 12° 68° (ENE) 22:57:40 437.505
RS-15 22 Jan 22:57:43 23:09:19 72° 113° (ESE) 23:21:28 29.354- 29.394
PCSat 22 Jan 23:04:06 23:08:08 22° 106° (ESE) 23:12:10 145.827
PHONESAT 2.4 22 Jan 23:06:11 23:06:56 11° 144° (SE) 23:07:42 2401.200-2431.200
AISAT 22 Jan 23:08:27 23:12:23 32° 72° (ENE) 23:16:20 437.250
POPSAT HIP 1 22 Jan 23:13:20 23:16:31 21° 96° (E) 23:19:41 437.405
BY70-1 22 Jan 23:20:40 23:22:43 17° 265° (W) 23:24:53 436.1900
DUCHIFAT 1 22 Jan 23:20:40 23:23:54 21° 96° (E) 23:27:08 145.980
JAS-2 22 Jan 23:22:40 23:30:09 86° 103° (ESE) 23:38:03 435.910
NANOSAT C BR1 22 Jan 23:27:18 23:30:57 28° 97° (E) 23:34:38 145.865
UNISAT 6 22 Jan 23:27:38 23:30:54 20° 290° (WNW) 23:34:14 437.425
TIGRISAT 22 Jan 23:40:37 23:43:20 16° 292° (WNW) 23:46:04 435.000
VELOX 1 22 Jan 23:41:05 23:45:31 76° 77° (ENE) 23:49:58 145.980
ESTCUBE 1 22 Jan 23:41:58 23:46:05 35° 262° (W) 23:50:14 437.505/2401.250
YUBILEINY 22 Jan 23:44:07 23:48:39 15° 66° (ENE) 23:53:09 435.215
BUGSAT 1 22 Jan 23:45:24 23:47:16 13° 94° (E) 23:49:08 437.445
SPROUT 22 Jan 23:49:46 23:53:58 68° 77° (ENE) 23:58:12 437.525
AO-85 22 Jan 23:55:29 23:57:30 14° 251° (WSW) 23:59:33 145.980
UKube-1 22 Jan 23:58:19 00:02:17 37° 73° (ENE) 00:06:16 .
DX 1 23 Jan 00:04:16 00:08:36 64° 75° (ENE) 00:12:55 434.975-435.025
QB50P1 23 Jan 00:20:59 00:25:05 52° 285° (WNW) 00:29:11 145.935-145.965
CUBEBUG 1 23 Jan 00:21:47 00:25:06 21° 264° (W) 00:28:27 437.445
BEESAT 2 23 Jan 00:23:04 00:24:22 11° 49° (NE) 00:25:39 435.950
50 SAT 23 Jan 00:26:01 00:29:14 31° 262° (W) 00:32:28 437.505
POLYITAN 1 23 Jan 00:26:05 00:30:08 45° 286° (WNW) 00:34:11 437.675
QB50P2 23 Jan 00:27:31 00:31:29 40° 286° (WNW) 00:35:27 145.880/145.840
Cosmos 2491 23 Jan 00:29:42 00:34:50 17° 80° (E) 00:39:58 435.465 / 435.565
PHONESAT 2.4 23 Jan 00:38:22 00:40:34 53° 337° (NNW) 00:42:44 2401.200-2431.200
AISAT 23 Jan 00:45:50 00:48:51 18° 265° (W) 00:51:53 437.250
PCSat 23 Jan 00:46:07 00:51:11 41° 300° (WNW) 00:56:18 145.827
POPSAT HIP 1 23 Jan 00:48:43 00:52:11 25° 289° (WNW) 00:55:41 437.405
DUCHIFAT 1 23 Jan 00:56:04 00:59:28 24° 289° (WNW) 01:02:52 145.980
ITUPSAT 1 23 Jan 01:02:05 01:02:59 10° 64° (ENE) 01:03:54 437.325
NANOSAT C BR1 23 Jan 01:03:31 01:06:26 18° 291° (WNW) 01:09:21 145.865
AIST 1 23 Jan 01:06:16 01:10:33 87° 85° (E) 01:14:47
BEESAT 3 23 Jan 01:07:35 01:11:35 87° 59° (ENE) 01:15:34 437.485
TISAT 1 23 Jan 01:07:58 01:12:07 72° 77° (ENE) 01:16:16 437.305
Cosmos 2504 23 Jan 01:09:31 01:15:29 27° 74° (ENE) 01:21:20 435.465 / 435.565
JAS-2 23 Jan 01:09:54 01:14:19 17° 297° (WNW) 01:18:54 435.910
RS-15 23 Jan 01:12:23 01:22:48 34° 315° (NW) 01:33:37 29.354- 29.394
BUGSAT 1 23 Jan 01:18:59 01:22:42 36° 287° (WNW) 01:26:28 437.445
Oscar 19 23 Jan 01:29:18 01:34:22 54° 101° (E) 01:39:21 437.125/150
BEESAT 23 Jan 01:31:39 01:35:25 24° 69° (ENE) 01:39:12 436.000
SWISSCUBE 23 Jan 01:33:18 01:37:19 28° 70° (ENE) 01:41:21 437.505
UKube-1 23 Jan 01:35:58 01:38:24 15° 266° (W) 01:40:50 .
YUBILEINY 23 Jan 01:37:45 01:46:36 89° 88° (E) 01:55:21 435.215
CUSAT 1 23 Jan 01:44:53 01:47:36 14° 79° (E) 01:50:38 437.405
BEESAT 2 23 Jan 01:58:30 02:02:28 58° 245° (WSW) 02:06:25 435.950
Gurwin Techsat 1B 23 Jan 02:05:34 02:10:52 64° 102° (ESE) 02:16:07 435.225
PHONESAT 2.4 23 Jan 02:13:20 02:14:41 14° 352° (N) 02:16:03 2401.200-2431.200
ITAMSAT 1 23 Jan 02:20:08 02:22:55 14° 93° (E) 02:25:43 435.822/435.867
Cosmos 2491 23 Jan 02:21:52 02:30:34 78° 277° (W) 02:39:19 435.465 / 435.565
ITUPSAT 1 23 Jan 02:35:28 02:40:11 68° 258° (WSW) 02:44:56 437.325
MOZHAYETS 4 23 Jan 02:39:00 02:43:07 34° 72° (ENE) 02:47:17
M-CUBED/EXP-1 PRIME 23 Jan 02:41:44 02:44:48 19° 66° (ENE) 02:47:45 437.505
AO-7 23 Jan 02:54:54 03:01:50 28° 97° (E) 03:08:40 29.400- 29.500
KKS-1 23 Jan 02:59:22 03:02:16 17° 68° (ENE) 03:05:11 437.445
Cosmos 2504 23 Jan 03:02:14 03:08:57 42° 271° (W) 03:15:35 435.465 / 435.565
DANDE 23 Jan 03:03:13 03:05:35 15° 82° (E) 03:08:19 436.750
BEESAT 23 Jan 03:08:57 03:13:01 28° 263° (W) 03:17:07 436.000
Oscar 19 23 Jan 03:10:17 03:13:10 15° 295° (WNW) 03:16:02 437.125/150
SWISSCUBE 23 Jan 03:11:13 03:15:01 24° 264° (W) 03:18:51 437.505
AUBIESAT-1 23 Jan 03:14:59 03:18:54 36° 70° (ENE) 03:22:37 437.475
CUSAT 1 23 Jan 03:23:23 03:28:21 60° 282° (WNW) 03:34:51 437.405
CUBESAT XI-V 23 Jan 03:33:19 03:36:39 20° 69° (ENE) 03:40:01 437.345
RS-15 23 Jan 03:36:37 03:41:06 12° 349° (NNW) 03:45:36 29.354- 29.394
YUBILEINY 23 Jan 03:37:58 03:42:04 14° 281° (WNW) 03:46:09 435.215
STARS 23 Jan 03:43:50 03:47:19 24° 70° (ENE) 03:50:48 437.465
PHONESAT 2.4 23 Jan 03:47:40 03:49:03 15° 8° (N) 03:50:26 2401.200-2431.200
Gurwin Techsat 1B 23 Jan 03:47:41 03:50:12 14° 296° (WNW) 03:52:42 435.225
ITAMSAT 1 23 Jan 03:57:33 04:02:37 54° 287° (WNW) 04:07:42 435.822/435.867
ISS 23 Jan 04:04:44 04:07:43 33° 39° (NE) 04:10:42 145.825
M-CUBED/EXP-1 PRIME 23 Jan 04:15:09 04:19:03 31° 257° (WSW) 04:22:46 437.505
MOZHAYETS 4 23 Jan 04:17:17 04:20:20 18° 266° (W) 04:23:24
AIST 2 23 Jan 04:21:41 04:25:56 84° 63° (ENE) 04:30:09 435.215
Cosmos 2491 23 Jan 04:26:00 04:28:48 12° 295° (WNW) 04:31:36 435.465 / 435.565
BRITE-PL 23 Jan 04:31:10 04:34:53 23° 94° (E) 04:38:23 437.365/2234.400
KKS-1 23 Jan 04:34:29 04:38:31 34° 261° (W) 04:42:36 437.445
DANDE 23 Jan 04:44:19 04:47:43 29° 289° (WNW) 04:52:04 436.750
AO-7 23 Jan 04:46:44 04:54:48 54° 293° (WNW) 05:02:48 29.400- 29.500
AUBIESAT-1 23 Jan 04:50:50 04:53:17 15° 260° (W) 04:55:40 437.475
CUBESAT XI-V 23 Jan 05:09:30 05:13:45 34° 262° (W) 05:18:01 437.345
Cosmos 2499 23 Jan 05:16:08 05:19:04 13° 68° (ENE) 05:21:59 435.465 / 435.565
STARS 23 Jan 05:20:00 05:23:31 24° 263° (W) 05:27:04 437.465
PHONESAT 2.4 23 Jan 05:20:59 05:23:11 58° 25° (NNE) 05:25:21 2401.200-2431.200
CUTE-I 23 Jan 05:30:29 05:33:44 16° 94° (E) 05:36:58 437.470
HORYU 2 23 Jan 05:38:34 05:42:58 58° 101° (ESE) 05:47:22 437.375
ISS 23 Jan 05:41:53 05:43:58 16° 233° (SW) 05:46:03 145.825
O/OREOS (USA 219) 23 Jan 05:42:38 05:47:05 76° 108° (ESE) 05:51:34 437.305
RS-15 23 Jan 05:53:54 06:01:31 18° 27° (NNE) 06:09:00 29.354- 29.394
GOMX 1 23 Jan 05:57:18 06:01:36 87° 100° (E) 06:05:45 467.674
BRITE-PL 23 Jan 06:09:30 06:13:16 24° 291° (WNW) 06:16:49 437.365/2234.400
NOAA 15 23 Jan 06:11:22 06:16:27 45° 100° (E) 06:21:28 137.62
Cubesat XI-IV 23 Jan 06:13:07 06:18:13 44° 99° (E) 06:23:18 437.490
DOVE 4 23 Jan 06:20:58 06:25:02 54° 100° (E) 06:29:07 437.250
GONETS M04 23 Jan 06:25:32 06:33:53 44° 78° (ENE) 06:42:10
LilacSat-2 23 Jan 06:25:43 06:29:37 81° 102° (ESE) 06:33:29 437.200
STRAND 1 23 Jan 06:28:54 06:33:40 42° 72° (ENE) 06:38:27 437.568
SO-50 23 Jan 06:40:14 06:44:48 48° 115° (ESE) 06:49:19 436.795
NOAA 18 23 Jan 06:41:51 06:47:01 43° 100° (E) 06:52:11 137.9125
CANX-2 23 Jan 06:50:36 06:52:58 14° 93° (E) 06:55:19 2200.000
PHONESAT 2.4 23 Jan 06:56:30 06:56:45 10° 217° (SW) 06:57:00 2401.200-2431.200
HO-68 23 Jan 07:02:04 07:07:54 26° 96° (E) 07:13:41 435.675
Cosmos 2499 23 Jan 07:05:54 07:12:58 82° 266° (W) 07:20:06 435.465 / 435.565
CUTE-I 23 Jan 07:08:49 07:13:58 50° 287° (WNW) 07:19:08 437.470
HORYU 2 23 Jan 07:17:53 07:18:58 11° 295° (WNW) 07:20:02 437.375
CINEMA 3 23 Jan 07:27:12 07:31:27 69° 101° (E) 07:35:50 145.822/145.860
NOAA 15 23 Jan 07:52:11 07:55:49 19° 294° (WNW) 07:59:27 137.62
Cubesat XI-IV 23 Jan 07:54:12 07:57:55 20° 294° (WNW) 08:01:38 437.490
CUTE 1.7 + AOD 2 23 Jan 07:54:44 07:59:02 78° 101° (ESE) 08:03:18 437.475
CUBEBUG 2 23 Jan 08:01:23 08:05:27 35° 98° (E) 08:09:38 437.445
RS-15 23 Jan 08:05:29 08:17:36 57° 55° (NE) 08:29:09 29.354- 29.394
STRAND 1 23 Jan 08:09:35 08:12:57 18° 266° (W) 08:16:21 437.568
FUNcube-1 23 Jan 08:11:22 08:13:52 15° 94° (E) 08:16:21 145.935
SO-50 23 Jan 08:22:24 08:25:29 17° 310° (NW) 08:28:35 436.795
GONETS M04 23 Jan 08:22:44 08:30:23 34° 274° (W) 08:38:02
UWE-3 23 Jan 08:23:11 08:27:21 39° 99° (E) 08:31:36 435.000/436.395/437.385
NOAA 18 23 Jan 08:23:23 08:27:19 21° 294° (WNW) 08:31:15 137.9125
CANX-2 23 Jan 08:24:56 08:28:54 37° 287° (WNW) 08:32:50 2200.000
COMPASS 1 23 Jan 08:28:31 08:32:43 82° 102° (ESE) 08:36:53 437.405
SEEDS 23 Jan 08:29:11 08:33:23 60° 284° (WNW) 08:37:32 437.485
ZACube-1 23 Jan 08:35:02 08:38:59 31° 97° (E) 08:42:59 437.345
AAUSAT CUBESAT 2 23 Jan 08:36:34 08:40:45 77° 102° (ESE) 08:44:54 437.432
UNISAT 6 23 Jan 08:46:34 08:49:04 16° 68° (ENE) 08:51:36 437.425
HO-68 23 Jan 08:48:56 08:55:45 49° 291° (WNW) 09:02:32 435.675
TIGRISAT 23 Jan 08:58:18 09:01:21 20° 70° (ENE) 09:04:25 435.000
PRISM 23 Jan 08:59:21 09:03:31 88° 69° (ENE) 09:07:42 437.425
Oscar 11 23 Jan 09:05:20 09:09:39 58° 100° (E) 09:13:55 145.826/435.025
ANTELSAT 23 Jan 09:13:33 09:17:19 32° 72° (ENE) 09:21:06 437.575/2403.000
DELFI C3 23 Jan 09:26:16 09:29:46 29° 97° (E) 09:33:13 145.870
JAS-2 23 Jan 09:33:03 09:36:52 20° 64° (ENE) 09:40:56 435.910
PCSat 23 Jan 09:37:45 09:43:09 64° 63° (ENE) 09:48:30 145.827
CUBEBUG 2 23 Jan 09:38:56 09:41:47 17° 290° (WNW) 09:44:41 437.445
FUNcube-1 23 Jan 09:46:01 09:50:10 40° 286° (WNW) 09:54:23 145.935
HUMSAT D 23 Jan 09:53:47 09:57:44 35° 98° (E) 10:01:40 437.325/437.525
UWE-3 23 Jan 10:00:48 10:03:28 16° 291° (WNW) 10:06:09 435.000/436.395/437.385
ZACube-1 23 Jan 10:11:50 10:15:01 20° 290° (WNW) 10:18:14 437.345
NANOSAT C BR1 23 Jan 10:16:57 10:18:49 13° 67° (ENE) 10:20:41 145.865
RS-15 23 Jan 10:18:47 10:29:28 38° 255° (WSW) 10:39:47 29.354- 29.394
UNISAT 6 23 Jan 10:21:35 10:25:28 34° 262° (W) 10:29:22 437.425
BY70-1 23 Jan 10:29:14 10:30:39 13° 93° (E) 10:32:01 436.1900
TIGRISAT 23 Jan 10:34:15 10:37:51 26° 263° (W) 10:41:27 435.000
Oscar 11 23 Jan 10:44:45 10:45:13 10° 294° (WNW) 10:45:40 145.826/435.025
ANTELSAT 23 Jan 10:51:25 10:54:04 16° 266° (W) 10:56:43 437.575/2403.000
DELFI C3 23 Jan 11:01:51 11:04:17 16° 291° (WNW) 11:06:42 145.870
QB50P1 23 Jan 11:08:45 11:12:53 62° 75° (ENE) 11:17:01 145.935-145.965
POLYITAN 1 23 Jan 11:13:56 11:18:05 73° 77° (ENE) 11:22:17 437.675
QB50P2 23 Jan 11:15:17 11:19:28 83° 77° (ENE) 11:23:41 145.880/145.840
JAS-2 23 Jan 11:16:31 11:21:31 43° 262° (W) 11:26:58 435.910
JUGNU 23 Jan 11:22:40 11:24:25 11° 164° (SSE) 11:26:12 437.505
PCSat 23 Jan 11:23:30 11:25:54 13° 257° (WSW) 11:28:18 145.827
HUMSAT D 23 Jan 11:30:22 11:33:01 16° 291° (WNW) 11:35:39 437.325/437.525
POPSAT HIP 1 23 Jan 11:36:01 11:40:08 59° 259° (W) 11:44:17 437.405
VELOX 1 23 Jan 11:36:15 11:39:25 19° 95° (E) 11:42:33 145.980
ESTCUBE 1 23 Jan 11:38:06 11:42:37 67° 101° (ESE) 11:47:05 437.505/2401.250
SPROUT 23 Jan 11:40:56 11:43:32 16° 94° (E) 11:46:06 437.525
DUCHIFAT 1 23 Jan 11:42:41 11:46:46 57° 259° (W) 11:50:53 145.980
NANOSAT C BR1 23 Jan 11:50:10 11:54:07 41° 261° (W) 11:58:05 145.865
50 SAT 23 Jan 11:55:48 11:58:33 21° 96° (E) 12:01:17 437.505
DX 1 23 Jan 11:58:02 12:00:32 15° 94° (E) 12:03:01 434.975-435.025
BY70-1 23 Jan 11:58:37 12:00:50 18° 289° (WNW) 12:02:56 436.1900
BUGSAT 1 23 Jan 12:03:52 12:07:55 81° 78° (ENE) 12:11:57 437.445
CUBEBUG 1 23 Jan 12:13:12 12:17:31 83° 285° (WNW) 12:21:49 437.445
CUSAT 1 23 Jan 12:22:19 12:25:29 13° 63° (ENE) 12:28:31 437.405
AO-85 23 Jan 12:23:35 12:28:00 35° 114° (ESE) 12:32:09 145.980
Cosmos 2491 23 Jan 12:37:42 12:46:00 44° 78° (ENE) 12:54:16 435.465 / 435.565
AISAT 23 Jan 12:38:24 12:42:45 68° 284° (WNW) 12:47:04 437.250
YUBILEINY 23 Jan 12:39:51 12:45:43 20° 81° (E) 12:51:35 435.215
Oscar 19 23 Jan 12:41:47 12:46:48 51° 73° (ENE) 12:51:50 437.125/150
TISAT 1 23 Jan 12:57:15 12:59:39 15° 94° (E) 13:02:03 437.305
JUGNU 23 Jan 13:08:39 13:12:44 19° 173° (S) 13:16:49 437.505
VELOX 1 23 Jan 13:12:03 13:15:50 29° 289° (WNW) 13:19:36 145.980
SPROUT 23 Jan 13:15:39 13:19:29 33° 287° (WNW) 13:23:18 437.525
Gurwin Techsat 1B 23 Jan 13:22:21 13:27:36 68° 75° (ENE) 13:32:53 435.225
UKube-1 23 Jan 13:24:57 13:29:12 64° 285° (WNW) 13:33:27 .
50 SAT 23 Jan 13:29:17 13:31:34 16° 290° (WNW) 13:33:49 437.505
AIST 1 23 Jan 13:30:44 13:35:02 63° 95° (E) 13:39:20
DX 1 23 Jan 13:32:50 13:36:48 36° 288° (WNW) 13:40:44 434.975-435.025
ITAMSAT 1 23 Jan 13:34:23 13:37:20 15° 65° (ENE) 13:40:16 435.822/435.867
Cosmos 2504 23 Jan 13:41:54 13:49:02 29° 86° (E) 13:55:49 435.465 / 435.565
DANDE 23 Jan 13:42:16 13:48:26 23° 70° (ENE) 13:54:39 436.750
AO-7 23 Jan 13:49:44 13:56:30 29° 61° (ENE) 14:03:16 29.400- 29.500
CUSAT 1 23 Jan 14:00:50 14:08:47 77° 81° (E) 14:15:36 437.405
AO-85 23 Jan 14:04:52 14:08:26 21° 306° (NW) 14:11:51 145.980
Oscar 19 23 Jan 14:23:24 14:26:20 15° 267° (W) 14:29:17 437.125/150
TISAT 1 23 Jan 14:31:34 14:35:20 34° 287° (WNW) 14:39:06 437.305
YUBILEINY 23 Jan 14:32:46 14:41:32 71° 277° (W) 14:50:23 435.215
Cosmos 2491 23 Jan 14:34:55 14:42:30 34° 274° (W) 14:50:08 435.465 / 435.565
ITUPSAT 1 23 Jan 14:40:11 14:44:46 42° 100° (E) 14:49:18 437.325
MOZHAYETS 4 23 Jan 14:40:20 14:41:48 11° 92° (E) 14:43:16
